Weather History for KCEZ - January, 2013

Change the Weather History Date:

Thursday, January 31, 2013

  Actual Average Record
Temperature  
Mean Temperature 32 °F 29 °F  
Max Temperature 45 °F 43 °F 57 °F (2003)
Min Temperature 19 °F 16 °F -2 °F (2001)
Degree Days  
Heating Degree Days 33 36  
Month to date heating degree days 1401 1148  
Since 1 July heating degree days 3855 3805  
Cooling Degree Days 0 0  
Month to date cooling degree days 0 0  
Year to date cooling degree days 0 0  
Moisture  
Dew Point 21 °F    
Average Humidity 63    
Maximum Humidity 92    
Minimum Humidity 33    
Precipitation  
Precipitation 0.00 in 0.04 in 0.38 in (2007)
Month to date precipitation 1.62 1.01  
Year to date precipitation 1.62 1.01  
Sea Level Pressure  
Sea Level Pressure 30.29 in    
Wind  
Wind Speed 6 mph (NNE)    
Max Wind Speed 12 mph    
Max Gust Speed 15 mph    
Visibility 10 miles    
Events      
T = Trace of Precipitation, MM = Missing Value Source: NWS Daily Summary

Daily Weather History Graph

Daily Weather History Graph

Search for Another Location

Airport or City:

Trip Planner

Search our weather history database for the weather conditions in past years. The results will help you decide how hot, cold, wet, or windy it might be!

Date:

Astronomy

Jan. 31, 2013 Rise Set
Actual Time 7:18 AM MST 5:38 PM MST
Civil Twilight 6:50 AM MST 6:05 PM MST
Nautical Twilight 6:19 AM MST 6:37 PM MST
Astronomical Twilight 5:48 AM MST 7:07 PM MST
Moon 10:35 PM MST (1/31) 9:26 AM MST (1/31)
Length of Visible Light 11h 15m
Length of Day
10h 20m
Waning Gibbous, 79% of the Moon is Illuminated
Jan 31
Waning Gibbous
Feb 3
Last Quarter
Feb 10
New
Feb 17
First Quarter
Feb 25
Full

Hourly Weather History & Observations

Time (MST) Temp. Windchill Dew Point Humidity Pressure Visibility Wind Dir Wind Speed Gust Speed Precip Events Conditions
12:53 AM 28.9 °F - 23.0 °F 78% 30.24 in 10.0 mi Calm Calm - N/A   Overcast
1:53 AM 27.0 °F 21.6 °F 21.9 °F 81% 30.24 in 10.0 mi East 4.6 mph - N/A   Overcast
2:53 AM 26.1 °F 21.9 °F 21.9 °F 84% 30.24 in 10.0 mi East 3.5 mph - N/A   Mostly Cloudy
3:53 AM 24.1 °F 18.2 °F 19.9 °F 84% 30.27 in 10.0 mi ENE 4.6 mph - N/A   Partly Cloudy
4:53 AM 25.0 °F 15.5 °F 21.0 °F 85% 30.28 in 10.0 mi ENE 9.2 mph - N/A   Mostly Cloudy
5:53 AM 21.9 °F 14.5 °F 19.0 °F 89% 30.31 in 10.0 mi NE 5.8 mph - N/A   Scattered Clouds
6:53 AM 19.0 °F 10.0 °F 16.0 °F 88% 30.33 in 10.0 mi ENE 6.9 mph - N/A   Clear
7:53 AM 21.0 °F 14.6 °F 18.0 °F 88% 30.35 in 10.0 mi NE 4.6 mph - N/A   Clear
8:53 AM 27.0 °F 23.0 °F 21.0 °F 78% 30.35 in 10.0 mi East 3.5 mph - N/A   Clear
9:53 AM 34.0 °F 27.2 °F 23.0 °F 64% 30.32 in 10.0 mi East 8.1 mph - N/A   Clear
10:53 AM 37.0 °F - 21.0 °F 52% 30.31 in 10.0 mi Calm Calm - N/A   Clear
11:53 AM 41.0 °F 35.2 °F 21.0 °F 45% 30.27 in 10.0 mi WNW 9.2 mph - N/A   Clear
12:53 PM 43.0 °F 38.8 °F 19.9 °F 40% 30.25 in 10.0 mi North 6.9 mph - N/A   Clear
1:53 PM 43.0 °F 38.8 °F 19.9 °F 40% 30.23 in 10.0 mi NNW 6.9 mph - N/A   Clear
2:53 PM 45.0 °F 42.6 °F 18.0 °F 34% 30.22 in 10.0 mi North 4.6 mph - N/A   Clear
3:53 PM 44.1 °F 39.5 °F 19.0 °F 37% 30.25 in 10.0 mi WNW 8.1 mph - N/A   Clear
4:53 PM 42.1 °F 36.1 °F 27.0 °F 55% 30.26 in 10.0 mi WNW 10.4 mph - N/A   Clear
5:53 PM 37.0 °F 31.0 °F 26.1 °F 65% 30.30 in 10.0 mi WNW 8.1 mph - N/A   Clear
6:53 PM 35.1 °F 32.2 °F 24.1 °F 64% 30.33 in 10.0 mi NNW 3.5 mph - N/A   Clear
7:53 PM 28.9 °F 20.4 °F 24.1 °F 82% 30.35 in 10.0 mi ENE 9.2 mph - N/A   Clear
8:53 PM 28.0 °F 20.0 °F 23.0 °F 81% 30.33 in 10.0 mi NE 8.1 mph - N/A   Clear
9:53 PM 27.0 °F 21.6 °F 21.9 °F 81% 30.31 in 10.0 mi ENE 4.6 mph - N/A   Clear
11:53 PM 25.0 °F - 21.0 °F 85% 30.30 in 10.0 mi Calm Calm - N/A   Clear